Regional Weather Roundup
Issued by NWS Green Bay, WI

Home | Current Version | Previous Version | Graphics & Text | Print | Product List | Glossary Off
Versions: 1 2 3 4 5 6 7 8 9 10 11 12 13 14 15 16 17 18 19 20 21 22 23 24 25 26 27 28 29 30 31 32 33 34 35 36 37 38 39 40 41 42 43 44 45 46 47 48 49 50

000
ASUS43 KGRB 201001
RWRGRB

NORTH-CENTRAL AND NORTHEAST WISCONSIN REGIONAL WEATHER ROUNDUP
NATIONAL WEATHER SERVICE GREEN BAY WI
500 AM CDT THU JUL 20 2017

WIZ005-009-010>012-018-019-201100-
NORTH CENTRAL WISCONSIN

CITY           SKY/WX    TMP DP  RH WIND       PRES   REMARKS
IRONWOOD       CLEAR     57  56  96 SW6       29.94R
MANITOWISH WTR NOT AVBL
ARBOR VITAE    NOT AVBL
EAGLE RIVER    NOT AVBL
LAND O LAKES   NOT AVBL
RHINELANDER    CLEAR     58  58 100 W5        29.96R
PHILLIPS       CLEAR     60  60 100 CALM      29.96R
ANTIGO         NOT AVBL
TOMAHAWK       NOT AVBL
MERRILL        CLOUDY    62  62 100 CALM      29.97S
$$

WIZ013-073-201100-
NORTHEAST WISCONSIN

CITY           SKY/WX    TMP DP  RH WIND       PRES   REMARKS
IRON MOUNTAIN  CLEAR     58  54  86 NW3       29.91R
MARINETTE      CLOUDY    63  57  81 NW6       29.91R
$$

WIZ017-030-035>037-045-201100-
CENTRAL WISCONSIN

CITY           SKY/WX    TMP DP  RH WIND       PRES   REMARKS
MEDFORD        NOT AVBL
WAUSAU         CLOUDY    68  66  93 W9        29.95S
MOSINEE        NOT AVBL
MARSHFIELD     CLOUDY    67  65  93 W7        29.96F
WISC RAPIDS    CLOUDY    67  67 100 W6        29.99R
STEVENS POINT  NOT AVBL
WAUPACA        NOT AVBL
SHAWANO        CLOUDY    71  66  84 W8        29.93S
CLINTONVILLE   NOT AVBL
WAUTOMA        LGT RAIN  67  66  97 W8        29.99R
$$

WIZ038-039-048-051-201100-
FOX VALLEY

CITY           SKY/WX    TMP DP  RH WIND       PRES   REMARKS
NWS GREEN BAY  CLOUDY    69  68  96 W8        29.94R
APPLETON       NOT AVBL
OSHKOSH        LGT RAIN  68  65  90 W7        29.96R
FOND DU LAC    RAIN      68  64  87 SW15G22   29.96R
$$

WIZ022-050-052-201100-
EAST CENTRAL WISCONSIN

CITY           SKY/WX    TMP DP  RH WIND       PRES   REMARKS
EPHRAIM        NOT AVBL
WASHINGTON ISL NOT AVBL
STURGEON BAY     N/A     69  65  86 W12       29.91R
MANITOWOC      NOT AVBL
SHEBOYGAN      LGT RAIN  68  68 100 W5        29.97R
$$

LMZ563-521-522-541>543-201100-
LAKESHORE

STATION/POSITION TIME  TEMP    WIND        PRES    VSBY  WAVE
                       AIR SEA DIR/SP/G                  HT/PER
                 (UTC) (F)     (DEG/KT/KT) (MB)    (MI)  (FT/S)
SHEBOYGAN LKSHOR 0900   70      10/  7/  9 1012.7F
KEWAUNEE LKSHORE 0930   69     220/  3/  3 1011.9F
NORTHPORT PIER   0940   65        CALM     1012.2S
N MID LAKE BUOY  0850   67 65  160/  6/  6 1012.8F         0
S GREEN BAY BUOY 0930   71 71  230/ 14/ 17 1012.2R
SISTER BAY LKSHO 0902   67     160/  4/  5   N/A
CHAMBERS ISLAND  0940   69     250/  2/  6 1011.9R
MENOMINEE LKSHOR 0930   68     280/  7/ 10 1012.2R
$$




USA.gov is the U.S. government's official web portal to all federal, state and local government web resources and services.